TEVEL2-3

Last updated on Fri Dec 19 2025 00:03:12 GMT+0000 (Coordinated Universal Time)

1 63218U 25052J 25352.60391340 .00014352 00000+0 54632-3 0 9994 2 63218 97.4084 244.1790 0005228 59.3561 300.8193 15.26837963 42478
UTC large
Height (km)
Speed (km/s)
/
Latitude / Longitude
Inclination (degrees)
Orbital Period (minutes)
Azimuth
Elevation
Range (km)
Doppler Factor

Next 0 passes for location: London (51.5072 / 0.1276)

Sorry there are no passes over London.